Starlink 1628

decayed
NORAD ID: 46169 Int'l Des: 2020-057 Owner: SPXS Country: US Constellation: starlink
LEOCIRCULAR
Group

About Starlink 1628

Description loading...

Altitude History

Altitude vs Time

uPlot chart will show altitude changes over time

Two-Line Element Set

1 46169U 20057BE 25302.55099126 .11839407 12054-4 37836-2 0 9997
2 46169 53.0210 66.3634 0007003 319.3748 40.6769 16.25483041287915
Epoch: Oct 29, 2025 • Age: 2342 hours

Current Status

Position data unavailable
Launch Date Aug 18, 2020
Age 5.4 years
Decay Date Oct 29, 2025
Type internet

Technical Details

Classification Payload
Mass 260.00 kg
Dry Mass 248.00 kg
Total Mass 260.00 kg
Length 0.20 m
Diameter 2.80 m
Span 9.00 m
Shape Box + pan
Manufacturer SPXS
Bus Type Starlink
Phase Status Unknown Transfer Status
Owner/State SPXS/US

Large Constellations

Loading constellations...